Time,TemperatureF,DewpointF,PressureIn,WindDirection,WindDirectionDegrees,WindSpeedMPH,WindSpeedGustMPH,Humidity,HourlyPrecipIn,Conditions,Clouds,dailyrainin,SoftwareType,DateUTC
2013-01-08 00:00:00,37.0,27.8,30.41,SW,234,3.0,4.0,69,0.00,,---,0.00,VWS V14.01,2013-01-08 05:00:00,
2013-01-08 00:01:00,37.0,27.8,30.41,WSW,244,3.0,3.0,69,0.00,,---,0.00,VWS V14.01,2013-01-08 05:01:00,
2013-01-08 00:02:00,37.0,27.8,30.41,WSW,253,3.0,4.0,69,0.00,,---,0.00,VWS V14.01,2013-01-08 05:02:00,
2013-01-08 00:07:00,36.9,28.0,30.41,SW,236,2.0,4.0,70,0.00,,---,0.00,VWS V14.01,2013-01-08 05:07:00,
2013-01-08 00:12:00,36.7,28.2,30.41,SW,236,1.0,4.0,71,0.00,,---,0.00,VWS V14.01,2013-01-08 05:12:00,
2013-01-08 00:17:00,36.5,28.0,30.41,SSW,212,2.0,4.0,71,0.00,,---,0.00,VWS V14.01,2013-01-08 05:17:00,
2013-01-08 00:22:00,36.5,28.0,30.41,SW,224,2.0,4.0,71,0.00,,---,0.00,VWS V14.01,2013-01-08 05:22:00,
2013-01-08 00:27:00,36.4,27.9,30.41,WSW,248,2.0,4.0,71,0.00,,---,0.00,VWS V14.01,2013-01-08 05:27:00,
2013-01-08 00:30:00,36.4,27.9,30.41,SW,225,2.0,4.0,71,0.00,,---,0.00,VWS V14.01,2013-01-08 05:30:00,
2013-01-08 00:32:00,36.3,27.8,30.41,SSW,203,2.0,3.0,71,0.00,,---,0.00,VWS V14.01,2013-01-08 05:32:00,
2013-01-08 00:37:00,36.2,28.1,30.41,WSW,250,2.0,3.0,72,0.00,,---,0.00,VWS V14.01,2013-01-08 05:37:00,
2013-01-08 00:42:00,36.1,28.0,30.41,WSW,238,2.0,4.0,72,0.00,,---,0.00,VWS V14.01,2013-01-08 05:42:00,
2013-01-08 00:47:00,35.9,28.1,30.41,SW,227,3.0,4.0,73,0.00,,---,0.00,VWS V14.01,2013-01-08 05:47:00,
2013-01-08 00:52:00,35.8,28.0,30.42,WSW,243,1.0,4.0,73,0.00,,---,0.00,VWS V14.01,2013-01-08 05:52:00,
2013-01-08 00:57:00,35.7,27.9,30.41,SW,225,3.0,4.0,73,0.00,,---,0.00,VWS V14.01,2013-01-08 05:57:00,
2013-01-08 01:00:00,35.6,28.1,30.41,SW,225,2.0,4.0,74,0.00,,---,0.00,VWS V14.01,2013-01-08 06:00:00,
2013-01-08 01:02:00,35.6,28.1,30.42,SW,221,2.0,3.0,74,0.00,,---,0.00,VWS V14.01,2013-01-08 06:02:00,
2013-01-08 01:07:00,35.4,28.3,30.42,SW,232,1.0,3.0,75,0.00,,---,0.00,VWS V14.01,2013-01-08 06:07:00,
2013-01-08 01:12:00,35.3,28.5,30.42,WSW,238,2.0,3.0,76,0.00,,---,0.00,VWS V14.01,2013-01-08 06:12:00,
2013-01-08 01:17:00,35.2,28.4,30.42,SW,229,2.0,4.0,76,0.00,,---,0.00,VWS V14.01,2013-01-08 06:17:00,
2013-01-08 01:22:00,35.0,28.5,30.41,SW,227,4.0,4.0,77,0.00,,---,0.00,VWS V14.01,2013-01-08 06:22:00,
2013-01-08 01:27:00,34.9,28.4,30.41,SW,226,1.0,4.0,77,0.00,,---,0.00,VWS V14.01,2013-01-08 06:27:00,
2013-01-08 01:30:00,34.7,28.6,30.41,SW,225,2.0,4.0,78,0.00,,---,0.00,VWS V14.01,2013-01-08 06:30:00,
2013-01-08 01:32:00,34.7,28.5,30.41,SW,231,1.0,1.0,78,0.00,,---,0.00,VWS V14.01,2013-01-08 06:32:00,
2013-01-08 01:37:00,34.3,28.2,30.41,SSW,204,1.0,2.0,78,0.00,,---,0.00,VWS V14.01,2013-01-08 06:37:00,
2013-01-08 01:42:00,34.3,28.2,30.41,South,180,3.0,3.0,78,0.00,,---,0.00,VWS V14.01,2013-01-08 06:42:00,
2013-01-08 01:47:00,34.5,28.0,30.41,SSW,198,2.0,3.0,77,0.00,,---,0.00,VWS V14.01,2013-01-08 06:47:00,
2013-01-08 01:52:00,34.5,28.0,30.41,SSW,207,1.0,4.0,77,0.00,,---,0.00,VWS V14.01,2013-01-08 06:52:00,
2013-01-08 01:57:00,34.5,28.0,30.41,SSW,209,2.0,4.0,77,0.00,,---,0.00,VWS V14.01,2013-01-08 06:57:00,
2013-01-08 02:00:00,34.6,28.1,30.41,SSW,202,1.0,4.0,77,0.00,,---,0.00,VWS V14.01,2013-01-08 07:00:00,
2013-01-08 02:02:00,34.7,27.9,30.41,WSW,238,2.0,4.0,76,0.00,,---,0.00,VWS V14.01,2013-01-08 07:02:00,
2013-01-08 02:07:00,34.9,27.5,30.41,South,183,2.0,4.0,74,0.00,,---,0.00,VWS V14.01,2013-01-08 07:07:00,
2013-01-08 02:12:00,35.4,27.6,30.41,SSW,198,3.0,5.0,73,0.00,,---,0.00,VWS V14.01,2013-01-08 07:12:00,
2013-01-08 02:17:00,35.8,27.7,30.41,SSW,194,2.0,5.0,72,0.00,,---,0.00,VWS V14.01,2013-01-08 07:17:00,
2013-01-08 02:22:00,36.1,27.6,30.41,SW,217,1.0,5.0,71,0.00,,---,0.00,VWS V14.01,2013-01-08 07:22:00,
2013-01-08 02:27:00,36.3,27.5,30.41,SSW,208,1.0,5.0,70,0.00,,---,0.00,VWS V14.01,2013-01-08 07:27:00,
2013-01-08 02:30:00,36.3,27.5,30.41,SSW,202,2.0,6.0,70,0.00,,---,0.00,VWS V14.01,2013-01-08 07:30:00,
2013-01-08 02:32:00,36.3,27.5,30.40,SSW,196,2.0,3.0,70,0.00,,---,0.00,VWS V14.01,2013-01-08 07:32:00,
2013-01-08 02:37:00,36.2,27.7,30.41,SSW,200,0.0,3.0,71,0.00,,---,0.00,VWS V14.01,2013-01-08 07:37:00,
2013-01-08 02:42:00,36.2,28.1,30.41,SW,215,1.0,3.0,72,0.00,,---,0.00,VWS V14.01,2013-01-08 07:42:00,
2013-01-08 02:47:00,36.4,28.9,30.41,SSW,205,0.0,3.0,74,0.00,,---,0.00,VWS V14.01,2013-01-08 07:47:00,
2013-01-08 02:52:00,36.3,29.5,30.41,SSE,155,1.0,3.0,76,0.00,,---,0.00,VWS V14.01,2013-01-08 07:52:00,
2013-01-08 02:57:00,36.4,30.2,30.41,SSW,205,1.0,3.0,78,0.00,,---,0.00,VWS V14.01,2013-01-08 07:57:00,
2013-01-08 03:00:00,36.5,30.6,30.41,SSW,202,1.0,3.0,79,0.00,,---,0.00,VWS V14.01,2013-01-08 08:00:00,
2013-01-08 03:02:00,36.5,30.9,30.41,SSW,195,2.0,3.0,80,0.00,,---,0.00,VWS V14.01,2013-01-08 08:02:00,
2013-01-08 03:07:00,36.7,31.1,30.41,SE,141,0.0,4.0,80,0.00,,---,0.00,VWS V14.01,2013-01-08 08:07:00,
2013-01-08 03:12:00,37.0,31.4,30.41,South,178,1.0,4.0,80,0.00,,---,0.00,VWS V14.01,2013-01-08 08:12:00,
2013-01-08 03:17:00,37.1,31.8,30.40,South,175,3.0,4.0,81,0.00,,---,0.00,VWS V14.01,2013-01-08 08:17:00,
2013-01-08 03:22:00,37.3,32.3,30.40,West,264,2.0,4.0,82,0.00,,---,0.00,VWS V14.01,2013-01-08 08:22:00,
2013-01-08 03:27:00,37.4,32.4,30.40,SW,214,1.0,4.0,82,0.00,,---,0.00,VWS V14.01,2013-01-08 08:27:00,
2013-01-08 03:30:00,37.4,32.1,30.40,SSW,202,2.0,5.0,81,0.00,,---,0.00,VWS V14.01,2013-01-08 08:30:00,
2013-01-08 03:32:00,37.3,32.3,30.40,South,174,2.0,4.0,82,0.00,,---,0.00,VWS V14.01,2013-01-08 08:32:00,
2013-01-08 03:37:00,37.3,32.6,30.40,WSW,238,1.0,4.0,83,0.00,,---,0.00,VWS V14.01,2013-01-08 08:37:00,
2013-01-08 03:42:00,37.4,32.7,30.40,South,189,1.0,4.0,83,0.00,,---,0.00,VWS V14.01,2013-01-08 08:42:00,
2013-01-08 03:47:00,37.4,32.4,30.40,SSW,206,1.0,5.0,82,0.00,,---,0.00,VWS V14.01,2013-01-08 08:47:00,
2013-01-08 03:52:00,37.3,32.3,30.40,SW,224,3.0,5.0,82,0.00,,---,0.00,VWS V14.01,2013-01-08 08:52:00,
2013-01-08 03:57:00,37.3,32.3,30.40,SW,228,1.0,5.0,82,0.00,,---,0.00,VWS V14.01,2013-01-08 08:57:00,
2013-01-08 04:00:00,37.2,32.2,30.40,SSW,202,1.0,5.0,82,0.00,,---,0.00,VWS V14.01,2013-01-08 09:00:00,
2013-01-08 04:02:00,37.3,32.0,30.40,ESE,106,0.0,2.0,81,0.00,,---,0.00,VWS V14.01,2013-01-08 09:02:00,
2013-01-08 04:07:00,37.3,32.3,30.40,SSE,154,1.0,4.0,82,0.00,,---,0.00,VWS V14.01,2013-01-08 09:07:00,
2013-01-08 04:12:00,37.4,32.4,30.40,SSW,192,1.0,4.0,82,0.00,,---,0.00,VWS V14.01,2013-01-08 09:12:00,
2013-01-08 04:17:00,37.5,32.5,30.40,SSW,198,1.0,5.0,82,0.00,,---,0.00,VWS V14.01,2013-01-08 09:17:00,
2013-01-08 04:22:00,37.6,32.9,30.40,SSE,162,1.0,5.0,83,0.00,,---,0.00,VWS V14.01,2013-01-08 09:22:00,
2013-01-08 04:27:00,37.5,33.1,30.39,WNW,293,0.0,5.0,84,0.00,,---,0.00,VWS V14.01,2013-01-08 09:27:00,
2013-01-08 04:30:00,37.6,33.5,30.39,SSW,202,1.0,5.0,85,0.00,,---,0.00,VWS V14.01,2013-01-08 09:30:00,
2013-01-08 04:32:00,37.6,33.5,30.39,SSE,153,3.0,5.0,85,0.00,,---,0.00,VWS V14.01,2013-01-08 09:32:00,
2013-01-08 04:37:00,37.7,33.9,30.39,SSW,210,0.0,5.0,86,0.00,,---,0.00,VWS V14.01,2013-01-08 09:37:00,
2013-01-08 04:42:00,37.8,34.3,30.39,South,190,1.0,5.0,87,0.00,,---,0.00,VWS V14.01,2013-01-08 09:42:00,
2013-01-08 04:47:00,37.9,34.7,30.39,SSE,158,1.0,5.0,88,0.00,,---,0.00,VWS V14.01,2013-01-08 09:47:00,
2013-01-08 04:52:00,38.1,35.2,30.39,ESE,116,1.0,5.0,89,0.00,,---,0.00,VWS V14.01,2013-01-08 09:52:00,
2013-01-08 04:57:00,38.4,35.5,30.39,South,186,2.0,5.0,89,0.00,,---,0.00,VWS V14.01,2013-01-08 09:57:00,
2013-01-08 05:00:00,38.6,35.4,30.39,SSW,202,2.0,6.0,88,0.00,,---,0.00,VWS V14.01,2013-01-08 10:00:00,
2013-01-08 05:02:00,38.8,35.3,30.39,ESE,102,4.0,6.0,87,0.00,,---,0.00,VWS V14.01,2013-01-08 10:02:00,
2013-01-08 05:07:00,39.1,35.6,30.39,South,185,3.0,7.0,87,0.00,,---,0.00,VWS V14.01,2013-01-08 10:07:00,
2013-01-08 05:12:00,39.2,35.7,30.39,SSW,209,2.0,7.0,87,0.00,,---,0.00,VWS V14.01,2013-01-08 10:12:00,
2013-01-08 05:17:00,39.3,35.5,30.40,East,98,4.0,7.0,86,0.00,,---,0.00,VWS V14.01,2013-01-08 10:17:00,
2013-01-08 05:22:00,39.4,35.6,30.39,SSE,160,2.0,7.0,86,0.00,,---,0.00,VWS V14.01,2013-01-08 10:22:00,
2013-01-08 05:27:00,39.4,35.6,30.40,SW,234,3.0,7.0,86,0.00,,---,0.00,VWS V14.01,2013-01-08 10:27:00,
2013-01-08 05:30:00,39.5,35.7,30.40,SSW,202,3.0,8.0,86,0.00,,---,0.00,VWS V14.01,2013-01-08 10:30:00,
2013-01-08 05:32:00,39.6,35.8,30.40,SW,225,3.0,9.0,86,0.00,,---,0.00,VWS V14.01,2013-01-08 10:32:00,
2013-01-08 05:37:00,39.7,35.6,30.40,SW,214,6.0,9.0,85,0.00,,---,0.00,VWS V14.01,2013-01-08 10:37:00,
2013-01-08 05:42:00,39.7,35.6,30.40,NNW,344,4.0,9.0,85,0.00,,---,0.00,VWS V14.01,2013-01-08 10:42:00,
2013-01-08 05:47:00,39.8,35.7,30.40,South,191,4.0,9.0,85,0.00,,---,0.00,VWS V14.01,2013-01-08 10:47:00,
2013-01-08 05:52:00,39.9,35.8,30.40,SSW,196,4.0,9.0,85,0.00,,---,0.00,VWS V14.01,2013-01-08 10:52:00,
2013-01-08 05:57:00,40.0,35.9,30.40,ENE,68,6.0,9.0,85,0.00,,---,0.00,VWS V14.01,2013-01-08 10:57:00,
2013-01-08 06:00:00,40.1,36.0,30.40,SSW,202,3.0,9.0,85,0.00,,---,0.00,VWS V14.01,2013-01-08 11:00:00,
2013-01-08 06:02:00,40.1,36.0,30.41,SE,134,4.0,7.0,85,0.00,,---,0.00,VWS V14.01,2013-01-08 11:02:00,
2013-01-08 06:07:00,40.3,36.2,30.41,SE,142,3.0,9.0,85,0.00,,---,0.00,VWS V14.01,2013-01-08 11:07:00,
2013-01-08 06:12:00,40.4,36.3,30.41,SW,228,3.0,9.0,85,0.00,,---,0.00,VWS V14.01,2013-01-08 11:12:00,
2013-01-08 06:17:00,40.4,36.3,30.41,South,181,2.0,11.0,85,0.00,,---,0.00,VWS V14.01,2013-01-08 11:17:00,
2013-01-08 06:22:00,40.7,36.5,30.42,SSW,196,4.0,11.0,85,0.00,,---,0.00,VWS V14.01,2013-01-08 11:22:00,
2013-01-08 06:27:00,40.9,36.5,30.42,South,186,7.0,13.0,84,0.00,,---,0.00,VWS V14.01,2013-01-08 11:27:00,
2013-01-08 06:30:00,41.0,36.5,30.42,SSW,202,4.0,14.0,84,0.00,,---,0.00,VWS V14.01,2013-01-08 11:30:00,
2013-01-08 06:32:00,40.9,36.8,30.42,SW,217,7.0,7.0,85,0.00,,---,0.00,VWS V14.01,2013-01-08 11:32:00,
2013-01-08 06:37:00,40.9,36.8,30.42,SW,214,4.0,8.0,85,0.00,,---,0.00,VWS V14.01,2013-01-08 11:37:00,
2013-01-08 06:42:00,41.0,36.8,30.43,WSW,241,5.0,9.0,85,0.00,,---,0.00,VWS V14.01,2013-01-08 11:42:00,
2013-01-08 06:47:00,41.1,36.6,30.42,North,352,2.0,11.0,84,0.00,,---,0.00,VWS V14.01,2013-01-08 11:47:00,
2013-01-08 06:53:00,41.1,36.0,30.43,SE,125,3.0,11.0,82,0.00,,---,0.00,VWS V14.01,2013-01-08 11:53:00,
2013-01-08 06:58:00,41.2,35.5,30.43,ENE,77,3.0,11.0,80,0.00,,---,0.00,VWS V14.01,2013-01-08 11:58:00,
2013-01-08 07:00:00,41.2,35.5,30.43,SSW,202,4.0,12.0,80,0.00,,---,0.00,VWS V14.01,2013-01-08 12:00:00,
2013-01-08 07:03:00,41.2,35.8,30.43,SE,131,5.0,9.0,81,0.00,,---,0.00,VWS V14.01,2013-01-08 12:03:00,
2013-01-08 07:08:00,41.3,35.3,30.43,South,191,3.0,15.0,79,0.00,,---,0.00,VWS V14.01,2013-01-08 12:08:00,
2013-01-08 07:13:00,41.4,35.1,30.43,SW,215,5.0,15.0,78,0.00,,---,0.00,VWS V14.01,2013-01-08 12:13:00,
2013-01-08 07:18:00,41.4,35.1,30.43,SSE,165,2.0,15.0,78,0.00,,---,0.00,VWS V14.01,2013-01-08 12:18:00,
2013-01-08 07:23:00,41.2,34.9,30.43,East,91,5.0,15.0,78,0.00,,---,0.00,VWS V14.01,2013-01-08 12:23:00,
2013-01-08 07:28:00,41.3,34.7,30.43,NNW,330,3.0,16.0,77,0.00,,---,0.00,VWS V14.01,2013-01-08 12:28:00,
2013-01-08 07:30:00,41.4,34.4,30.43,SSW,202,5.0,16.0,76,0.00,,---,0.00,VWS V14.01,2013-01-08 12:30:00,
2013-01-08 07:33:00,41.5,34.2,30.44,South,191,6.0,12.0,75,0.00,,---,0.00,VWS V14.01,2013-01-08 12:33:00,
2013-01-08 07:38:00,41.6,33.6,30.44,SSE,158,6.0,12.0,73,0.00,,---,0.00,VWS V14.01,2013-01-08 12:38:00,
2013-01-08 07:43:00,41.6,33.6,30.44,ESE,123,5.0,12.0,73,0.00,,---,0.00,VWS V14.01,2013-01-08 12:43:00,
2013-01-08 07:48:00,41.8,33.1,30.44,South,181,5.0,12.0,71,0.00,,---,0.00,VWS V14.01,2013-01-08 12:48:00,
2013-01-08 07:53:00,41.9,32.8,30.44,South,182,3.0,12.0,70,0.00,,---,0.00,VWS V14.01,2013-01-08 12:53:00,
2013-01-08 07:58:00,42.1,32.7,30.44,SSW,202,3.0,12.0,69,0.00,,---,0.00,VWS V14.01,2013-01-08 12:58:00,
2013-01-08 08:00:00,42.2,32.4,30.44,SSW,202,4.0,13.0,68,0.00,,---,0.00,VWS V14.01,2013-01-08 13:00:00,
2013-01-08 08:03:00,42.3,32.9,30.44,ESE,118,2.0,8.0,69,0.00,,---,0.00,VWS V14.01,2013-01-08 13:03:00,
2013-01-08 08:08:00,42.5,32.7,30.44,SSW,209,2.0,12.0,68,0.00,,---,0.00,VWS V14.01,2013-01-08 13:08:00,
2013-01-08 08:13:00,42.7,33.6,30.43,WSW,255,5.0,12.0,70,0.00,,---,0.00,VWS V14.01,2013-01-08 13:13:00,
2013-01-08 08:18:00,42.6,34.2,30.43,SSE,163,3.0,12.0,72,0.00,,---,0.00,VWS V14.01,2013-01-08 13:18:00,
2013-01-08 08:23:00,42.6,34.6,30.44,SW,231,3.0,14.0,73,0.00,,---,0.00,VWS V14.01,2013-01-08 13:23:00,
2013-01-08 08:28:00,42.8,34.8,30.44,WSW,241,4.0,14.0,73,0.00,,---,0.00,VWS V14.01,2013-01-08 13:28:00,
2013-01-08 08:30:00,42.9,34.5,30.44,SSW,202,5.0,14.0,72,0.00,,---,0.00,VWS V14.01,2013-01-08 13:30:00,
2013-01-08 08:33:00,43.1,34.7,30.44,NE,41,1.0,10.0,72,0.00,,---,0.00,VWS V14.01,2013-01-08 13:33:00,
2013-01-08 08:38:00,43.3,34.2,30.44,South,187,8.0,12.0,70,0.00,,---,0.00,VWS V14.01,2013-01-08 13:38:00,
2013-01-08 08:43:00,43.5,34.4,30.44,SE,129,7.0,12.0,70,0.00,,---,0.00,VWS V14.01,2013-01-08 13:43:00,
2013-01-08 08:48:00,43.6,34.8,30.44,WSW,258,2.0,12.0,71,0.00,,---,0.00,VWS V14.01,2013-01-08 13:48:00,
2013-01-08 08:53:00,43.9,34.4,30.44,South,172,7.0,12.0,69,0.00,,---,0.00,VWS V14.01,2013-01-08 13:53:00,
2013-01-08 08:58:00,44.3,33.7,30.44,SW,224,5.0,12.0,66,0.00,,---,0.00,VWS V14.01,2013-01-08 13:58:00,
2013-01-08 09:00:00,44.6,33.6,30.44,SSW,202,5.0,12.0,65,0.00,,---,0.00,VWS V14.01,2013-01-08 14:00:00,
2013-01-08 09:03:00,44.9,33.1,30.44,West,260,8.0,10.0,63,0.00,,---,0.00,VWS V14.01,2013-01-08 14:03:00,
2013-01-08 09:08:00,45.2,33.4,30.44,South,189,4.0,12.0,63,0.00,,---,0.00,VWS V14.01,2013-01-08 14:08:00,
2013-01-08 09:13:00,45.3,33.1,30.44,SW,217,2.0,14.0,62,0.00,,---,0.00,VWS V14.01,2013-01-08 14:13:00,
2013-01-08 09:18:00,45.7,33.4,30.45,SSW,203,2.0,14.0,62,0.00,,---,0.00,VWS V14.01,2013-01-08 14:18:00,
2013-01-08 09:23:00,45.3,32.7,30.45,SSE,148,6.0,14.0,61,0.00,,---,0.00,VWS V14.01,2013-01-08 14:23:00,
2013-01-08 09:28:00,45.2,32.6,30.45,NE,53,9.0,15.0,61,0.00,,---,0.00,VWS V14.01,2013-01-08 14:28:00,
2013-01-08 09:30:00,45.3,32.7,30.44,SW,225,5.0,15.0,61,0.00,,---,0.00,VWS V14.01,2013-01-08 14:30:00,
2013-01-08 09:33:00,45.4,32.3,30.45,SSE,153,11.0,14.0,60,0.00,,---,0.00,VWS V14.01,2013-01-08 14:33:00,
2013-01-08 09:38:00,45.3,32.2,30.45,SW,219,6.0,16.0,60,0.00,,---,0.00,VWS V14.01,2013-01-08 14:38:00,
2013-01-08 09:43:00,45.5,32.4,30.44,SW,223,7.0,16.0,60,0.00,,---,0.00,VWS V14.01,2013-01-08 14:43:00,
2013-01-08 09:48:00,45.7,32.2,30.44,SSE,148,5.0,16.0,59,0.00,,---,0.00,VWS V14.01,2013-01-08 14:48:00,
2013-01-08 09:53:00,45.9,32.4,30.44,SSW,204,9.0,16.0,59,0.00,,---,0.00,VWS V14.01,2013-01-08 14:53:00,
2013-01-08 09:58:00,46.1,32.6,30.44,South,188,5.0,16.0,59,0.00,,---,0.00,VWS V14.01,2013-01-08 14:58:00,
2013-01-08 10:00:00,46.1,32.2,30.44,SW,225,6.0,17.0,58,0.00,,---,0.00,VWS V14.01,2013-01-08 15:00:00,
2013-01-08 10:03:00,46.2,32.7,30.44,SSE,153,4.0,12.0,59,0.00,,---,0.00,VWS V14.01,2013-01-08 15:03:00,
2013-01-08 10:08:00,46.1,32.6,30.44,SW,219,5.0,17.0,59,0.00,,---,0.00,VWS V14.01,2013-01-08 15:08:00,
2013-01-08 10:13:00,46.2,32.7,30.44,West,262,3.0,17.0,59,0.00,,---,0.00,VWS V14.01,2013-01-08 15:13:00,
2013-01-08 10:18:00,46.4,32.9,30.44,WSW,248,11.0,17.0,59,0.00,,---,0.00,VWS V14.01,2013-01-08 15:18:00,
2013-01-08 10:23:00,46.8,33.7,30.43,NW,315,2.0,17.0,60,0.00,,---,0.00,VWS V14.01,2013-01-08 15:23:00,
2013-01-08 10:28:00,46.6,33.0,30.43,SSW,208,3.0,17.0,59,0.00,,---,0.00,VWS V14.01,2013-01-08 15:28:00,
2013-01-08 10:30:00,46.7,33.2,30.43,SW,225,6.0,17.0,59,0.00,,---,0.00,VWS V14.01,2013-01-08 15:30:00,
2013-01-08 10:33:00,46.7,32.7,30.42,SW,226,6.0,11.0,58,0.00,,---,0.00,VWS V14.01,2013-01-08 15:33:00,
2013-01-08 10:38:00,46.5,33.0,30.43,West,260,8.0,12.0,59,0.00,,---,0.00,VWS V14.01,2013-01-08 15:38:00,
2013-01-08 10:43:00,47.1,33.9,30.42,WNW,288,1.0,12.0,60,0.00,,---,0.00,VWS V14.01,2013-01-08 15:43:00,
2013-01-08 10:48:00,47.9,34.7,30.42,SSW,212,3.0,12.0,60,0.00,,---,0.00,VWS V14.01,2013-01-08 15:48:00,
2013-01-08 10:53:00,47.7,36.5,30.42,SE,141,4.0,12.0,65,0.00,,---,0.00,VWS V14.01,2013-01-08 15:53:00,
2013-01-08 10:58:00,47.6,36.8,30.42,South,191,8.0,12.0,66,0.00,,---,0.00,VWS V14.01,2013-01-08 15:58:00,
2013-01-08 11:00:00,47.3,36.9,30.41,SW,225,4.0,12.0,67,0.00,,---,0.00,VWS V14.01,2013-01-08 16:00:00,
2013-01-08 11:03:00,47.3,37.3,30.41,SW,220,3.0,6.0,68,0.00,,---,0.00,VWS V14.01,2013-01-08 16:03:00,
2013-01-08 11:08:00,47.9,36.7,30.41,West,259,1.0,7.0,65,0.00,,---,0.00,VWS V14.01,2013-01-08 16:08:00,
2013-01-08 11:13:00,48.2,37.0,30.41,WSW,248,6.0,8.0,65,0.00,,---,0.00,VWS V14.01,2013-01-08 16:13:00,
2013-01-08 11:18:00,47.6,37.2,30.41,SSE,155,3.0,8.0,67,0.00,,---,0.00,VWS V14.01,2013-01-08 16:18:00,
2013-01-08 11:23:00,48.0,36.4,30.41,SSW,197,3.0,8.0,64,0.00,,---,0.00,VWS V14.01,2013-01-08 16:23:00,
2013-01-08 11:28:00,47.9,37.5,30.40,ESE,113,4.0,8.0,67,0.00,,---,0.00,VWS V14.01,2013-01-08 16:28:00,
2013-01-08 11:30:00,47.7,37.7,30.40,SW,225,3.0,8.0,68,0.00,,---,0.00,VWS V14.01,2013-01-08 16:30:00,
2013-01-08 11:33:00,47.6,38.0,30.40,West,259,2.0,6.0,69,0.00,,---,0.00,VWS V14.01,2013-01-08 16:33:00,
2013-01-08 11:38:00,47.6,38.0,30.39,SSW,210,4.0,8.0,69,0.00,,---,0.00,VWS V14.01,2013-01-08 16:38:00,
2013-01-08 11:43:00,47.3,38.0,30.39,SSW,212,2.0,8.0,70,0.00,,---,0.00,VWS V14.01,2013-01-08 16:43:00,
2013-01-08 11:48:00,46.7,37.8,30.39,SW,232,4.0,10.0,71,0.00,,---,0.00,VWS V14.01,2013-01-08 16:48:00,
2013-01-08 11:53:00,46.3,37.8,30.40,SW,214,7.0,10.0,72,0.00,,---,0.00,VWS V14.01,2013-01-08 16:53:00,
2013-01-08 11:58:00,46.3,38.5,30.39,South,172,5.0,10.0,74,0.00,,---,0.00,VWS V14.01,2013-01-08 16:58:00,
2013-01-08 12:00:00,46.1,38.3,30.39,SSW,202,4.0,10.0,74,0.00,,---,0.00,VWS V14.01,2013-01-08 17:00:00,
2013-01-08 12:03:00,46.0,38.2,30.39,SW,229,3.0,10.0,74,0.00,,---,0.00,VWS V14.01,2013-01-08 17:03:00,
2013-01-08 12:08:00,46.0,38.2,30.39,SW,224,4.0,10.0,74,0.00,,---,0.00,VWS V14.01,2013-01-08 17:08:00,
2013-01-08 12:13:00,45.9,38.4,30.39,South,169,5.0,10.0,75,0.00,,---,0.00,VWS V14.01,2013-01-08 17:13:00,
2013-01-08 12:18:00,45.8,38.0,30.39,West,280,3.0,12.0,74,0.00,,---,0.00,VWS V14.01,2013-01-08 17:18:00,
2013-01-08 12:23:00,45.9,38.1,30.38,South,176,6.0,12.0,74,0.00,,---,0.00,VWS V14.01,2013-01-08 17:23:00,
2013-01-08 12:28:00,45.9,38.1,30.38,WSW,250,5.0,12.0,74,0.00,,---,0.00,VWS V14.01,2013-01-08 17:28:00,
2013-01-08 12:30:00,46.0,37.8,30.38,SW,225,5.0,12.0,73,0.00,,---,0.00,VWS V14.01,2013-01-08 17:30:00,
2013-01-08 12:33:00,46.1,37.9,30.38,NE,56,4.0,10.0,73,0.00,,---,0.00,VWS V14.01,2013-01-08 17:33:00,
2013-01-08 12:38:00,46.1,38.3,30.38,SSW,203,3.0,10.0,74,0.00,,---,0.00,VWS V14.01,2013-01-08 17:38:00,
2013-01-08 12:43:00,46.1,37.9,30.38,SSW,199,5.0,10.0,73,0.00,,---,0.00,VWS V14.01,2013-01-08 17:43:00,
2013-01-08 12:48:00,46.0,38.2,30.38,South,181,6.0,10.0,74,0.00,,---,0.00,VWS V14.01,2013-01-08 17:48:00,
2013-01-08 12:53:00,45.7,38.2,30.37,SE,140,5.0,10.0,75,0.00,,---,0.00,VWS V14.01,2013-01-08 17:53:00,
2013-01-08 12:58:00,45.7,38.6,30.37,South,187,5.0,10.0,76,0.00,,---,0.00,VWS V14.01,2013-01-08 17:58:00,
2013-01-08 13:00:00,45.7,38.6,30.37,SSW,202,4.0,10.0,76,0.00,,---,0.00,VWS V14.01,2013-01-08 18:00:00,
2013-01-08 13:03:00,45.7,38.6,30.37,WSW,245,4.0,8.0,76,0.00,,---,0.00,VWS V14.01,2013-01-08 18:03:00,
2013-01-08 13:08:00,45.7,38.6,30.37,South,188,1.0,8.0,76,0.00,,---,0.00,VWS V14.01,2013-01-08 18:08:00,
2013-01-08 13:13:00,45.6,38.5,30.37,NNW,342,2.0,10.0,76,0.00,,---,0.00,VWS V14.01,2013-01-08 18:13:00,
2013-01-08 13:18:00,45.7,38.2,30.37,SE,130,6.0,10.0,75,0.00,,---,0.00,VWS V14.01,2013-01-08 18:18:00,
2013-01-08 13:23:00,45.9,37.8,30.37,West,260,2.0,11.0,73,0.00,,---,0.00,VWS V14.01,2013-01-08 18:23:00,
2013-01-08 13:28:00,45.9,37.4,30.37,SW,219,2.0,11.0,72,0.00,,---,0.00,VWS V14.01,2013-01-08 18:28:00,
2013-01-08 13:30:00,45.9,37.4,30.37,SW,225,4.0,11.0,72,0.00,,---,0.00,VWS V14.01,2013-01-08 18:30:00,
2013-01-08 13:33:00,45.8,37.3,30.37,ENE,77,4.0,10.0,72,0.00,,---,0.00,VWS V14.01,2013-01-08 18:33:00,
2013-01-08 13:38:00,45.8,37.3,30.37,SW,230,4.0,10.0,72,0.00,,---,0.00,VWS V14.01,2013-01-08 18:38:00,
2013-01-08 13:43:00,46.1,37.9,30.37,SSW,199,4.0,12.0,73,0.00,,---,0.00,VWS V14.01,2013-01-08 18:43:00,
2013-01-08 13:48:00,46.1,37.6,30.37,ESE,120,6.0,12.0,72,0.00,,---,0.00,VWS V14.01,2013-01-08 18:48:00,
2013-01-08 13:53:00,46.1,37.9,30.37,WSW,245,2.0,12.0,73,0.00,,---,0.00,VWS V14.01,2013-01-08 18:53:00,
2013-01-08 13:59:00,46.1,37.9,30.37,SW,233,5.0,12.0,73,0.00,,---,0.00,VWS V14.01,2013-01-08 18:59:00,
2013-01-08 14:00:00,46.1,37.9,30.37,SSW,202,5.0,12.0,73,0.00,,---,0.00,VWS V14.01,2013-01-08 19:00:00,
2013-01-08 14:09:00,46.0,38.2,30.38,SSW,193,3.0,12.0,74,0.00,,---,0.00,VWS V14.01,2013-01-08 19:09:00,
2013-01-08 14:14:00,46.2,38.0,30.38,SW,226,4.0,12.0,73,0.00,,---,0.00,VWS V14.01,2013-01-08 19:14:00,
2013-01-08 14:19:00,46.0,38.2,30.37,SE,145,5.0,12.0,74,0.00,,---,0.00,VWS V14.01,2013-01-08 19:19:00,
2013-01-08 14:24:00,45.7,38.2,30.37,South,188,5.0,12.0,75,0.00,,---,0.00,VWS V14.01,2013-01-08 19:24:00,
2013-01-08 14:30:00,45.6,38.2,30.37,SSE,161,5.0,12.0,75,0.00,,---,0.00,VWS V14.01,2013-01-08 19:30:00,
2013-01-08 14:34:00,45.6,38.2,30.37,NW,326,5.0,9.0,75,0.00,,---,0.00,VWS V14.01,2013-01-08 19:34:00,
2013-01-08 14:40:00,45.6,38.5,30.38,WSW,242,7.0,9.0,76,0.00,,---,0.00,VWS V14.01,2013-01-08 19:40:00,
2013-01-08 14:47:00,45.5,38.4,30.38,SSW,192,6.0,9.0,76,0.00,,---,0.00,VWS V14.01,2013-01-08 19:47:00,
2013-01-08 14:52:00,45.3,38.2,30.38,WSW,238,5.0,11.0,76,0.00,,---,0.00,VWS V14.01,2013-01-08 19:52:00,
2013-01-08 14:57:00,45.1,38.7,30.38,SW,229,7.0,11.0,78,0.00,,---,0.00,VWS V14.01,2013-01-08 19:57:00,
2013-01-08 15:00:00,45.0,38.6,30.38,SSW,202,5.0,11.0,78,0.00,,---,0.00,VWS V14.01,2013-01-08 20:00:00,
2013-01-08 15:02:00,44.9,38.5,30.38,SSW,192,3.0,7.0,78,0.00,,---,0.00,VWS V14.01,2013-01-08 20:02:00,
2013-01-08 15:07:00,44.7,38.6,30.38,SW,234,2.0,9.0,79,0.00,,---,0.00,VWS V14.01,2013-01-08 20:07:00,
2013-01-08 15:12:00,44.4,38.6,30.38,ESE,122,4.0,9.0,80,0.00,,---,0.00,VWS V14.01,2013-01-08 20:12:00,
2013-01-08 15:17:00,44.1,38.7,30.38,SSE,168,3.0,9.0,81,0.00,,---,0.00,VWS V14.01,2013-01-08 20:17:00,
2013-01-08 15:22:00,44.0,38.5,30.38,SW,222,4.0,9.0,81,0.00,,---,0.00,VWS V14.01,2013-01-08 20:22:00,
2013-01-08 15:27:00,44.1,39.0,30.38,SW,236,8.0,9.0,82,0.00,,---,0.00,VWS V14.01,2013-01-08 20:27:00,
2013-01-08 15:30:00,44.2,38.8,30.38,SW,225,4.0,9.0,81,0.00,,---,0.00,VWS V14.01,2013-01-08 20:30:00,
2013-01-08 15:32:00,44.2,38.8,30.38,South,174,7.0,7.0,81,0.00,,---,0.00,VWS V14.01,2013-01-08 20:32:00,
2013-01-08 15:37:00,44.5,39.0,30.38,West,276,1.0,9.0,81,0.00,,---,0.00,VWS V14.01,2013-01-08 20:37:00,
2013-01-08 15:42:00,44.5,39.0,30.38,NE,36,2.0,10.0,81,0.00,,---,0.00,VWS V14.01,2013-01-08 20:42:00,
2013-01-08 15:47:00,44.5,38.7,30.38,SE,143,3.0,10.0,80,0.00,,---,0.00,VWS V14.01,2013-01-08 20:47:00,
2013-01-08 15:52:00,44.4,38.9,30.38,SE,127,5.0,10.0,81,0.00,,---,0.00,VWS V14.01,2013-01-08 20:52:00,
2013-01-08 15:57:00,44.3,38.8,30.38,SSW,198,8.0,10.0,81,0.00,,---,0.00,VWS V14.01,2013-01-08 20:57:00,
2013-01-08 16:00:00,44.3,38.8,30.38,SSW,202,4.0,10.0,81,0.00,,---,0.00,VWS V14.01,2013-01-08 21:00:00,
2013-01-08 16:02:00,44.3,38.8,30.38,ESE,110,3.0,6.0,81,0.00,,---,0.00,VWS V14.01,2013-01-08 21:02:00,
2013-01-08 16:07:00,44.1,39.0,30.38,SE,134,2.0,8.0,82,0.00,,---,0.00,VWS V14.01,2013-01-08 21:07:00,
2013-01-08 16:12:00,43.8,38.7,30.39,SSE,159,6.0,9.0,82,0.00,,---,0.00,VWS V14.01,2013-01-08 21:12:00,
2013-01-08 16:17:00,43.7,38.9,30.38,NE,39,4.0,9.0,83,0.00,,---,0.00,VWS V14.01,2013-01-08 21:17:00,
2013-01-08 16:22:00,43.6,38.8,30.39,SW,214,4.0,9.0,83,0.00,,---,0.00,VWS V14.01,2013-01-08 21:22:00,
2013-01-08 16:27:00,43.6,38.8,30.39,WSW,243,4.0,10.0,83,0.00,,---,0.00,VWS V14.01,2013-01-08 21:27:00,
2013-01-08 16:30:00,43.5,38.7,30.39,SSW,202,4.0,10.0,83,0.00,,---,0.00,VWS V14.01,2013-01-08 21:30:00,
2013-01-08 16:32:00,43.5,38.7,30.39,ESE,117,4.0,7.0,83,0.00,,---,0.00,VWS V14.01,2013-01-08 21:32:00,
2013-01-08 16:37:00,43.4,38.9,30.39,SSW,203,4.0,7.0,84,0.00,,---,0.00,VWS V14.01,2013-01-08 21:37:00,
2013-01-08 16:42:00,43.2,38.7,30.39,SE,130,2.0,8.0,84,0.00,,---,0.00,VWS V14.01,2013-01-08 21:42:00,
2013-01-08 16:47:00,43.1,38.9,30.39,South,174,4.0,8.0,85,0.00,,---,0.00,VWS V14.01,2013-01-08 21:47:00,
2013-01-08 16:52:00,42.9,38.7,30.39,SE,139,7.0,8.0,85,0.00,,---,0.00,VWS V14.01,2013-01-08 21:52:00,
2013-01-08 16:57:00,42.8,38.9,30.39,NW,326,6.0,8.0,86,0.00,,---,0.00,VWS V14.01,2013-01-08 21:57:00,
2013-01-08 17:00:00,42.8,38.9,30.39,SSW,202,3.0,9.0,86,0.00,,---,0.00,VWS V14.01,2013-01-08 22:00:00,
2013-01-08 17:02:00,42.7,38.8,30.39,East,84,2.0,5.0,86,0.00,,---,0.00,VWS V14.01,2013-01-08 22:02:00,
2013-01-08 17:07:00,42.5,38.9,30.39,South,179,2.0,7.0,87,0.00,,---,0.00,VWS V14.01,2013-01-08 22:07:00,
2013-01-08 17:12:00,42.4,39.1,30.39,ESE,109,6.0,8.0,88,0.00,,---,0.00,VWS V14.01,2013-01-08 22:12:00,
2013-01-08 17:17:00,42.4,39.1,30.40,NNW,342,2.0,8.0,88,0.00,,---,0.00,VWS V14.01,2013-01-08 22:17:00,
2013-01-08 17:22:00,42.4,39.1,30.40,SSW,193,4.0,8.0,88,0.00,,---,0.00,VWS V14.01,2013-01-08 22:22:00,
2013-01-08 17:27:00,42.6,39.3,30.39,ESE,123,2.0,9.0,88,0.00,,---,0.00,VWS V14.01,2013-01-08 22:27:00,
2013-01-08 17:30:00,42.7,39.1,30.39,SSW,202,3.0,9.0,87,0.00,,---,0.00,VWS V14.01,2013-01-08 22:30:00,
2013-01-08 17:32:00,42.6,39.3,30.39,SSE,156,2.0,6.0,88,0.00,,---,0.00,VWS V14.01,2013-01-08 22:32:00,
2013-01-08 17:37:00,42.4,39.1,30.39,SW,224,2.0,7.0,88,0.00,,---,0.00,VWS V14.01,2013-01-08 22:37:00,
2013-01-08 17:42:00,42.4,39.4,30.40,SSE,161,3.0,8.0,89,0.00,,---,0.00,VWS V14.01,2013-01-08 22:42:00,
2013-01-08 17:47:00,42.5,39.5,30.40,ENE,64,3.0,9.0,89,0.00,,---,0.00,VWS V14.01,2013-01-08 22:47:00,
2013-01-08 17:52:00,42.5,39.5,30.39,SSW,206,5.0,9.0,89,0.00,,---,0.00,VWS V14.01,2013-01-08 22:52:00,
2013-01-08 17:57:00,42.7,39.7,30.39,SSE,154,4.0,9.0,89,0.00,,---,0.00,VWS V14.01,2013-01-08 22:57:00,
2013-01-08 18:00:00,42.7,39.7,30.39,SSW,202,3.0,9.0,89,0.00,,---,0.00,VWS V14.01,2013-01-08 23:00:00,
2013-01-08 18:02:00,42.7,39.7,30.40,South,173,2.0,7.0,89,0.00,,---,0.00,VWS V14.01,2013-01-08 23:02:00,
2013-01-08 18:07:00,42.7,39.7,30.39,SW,216,2.0,7.0,89,0.00,,---,0.00,VWS V14.01,2013-01-08 23:07:00,
2013-01-08 18:12:00,42.6,39.6,30.39,WSW,254,3.0,7.0,89,0.00,,---,0.00,VWS V14.01,2013-01-08 23:12:00,
2013-01-08 18:17:00,42.5,39.5,30.40,SW,223,3.0,7.0,89,0.00,,---,0.00,VWS V14.01,2013-01-08 23:17:00,
2013-01-08 18:22:00,42.4,39.7,30.39,WSW,244,1.0,7.0,90,0.00,,---,0.00,VWS V14.01,2013-01-08 23:22:00,
2013-01-08 18:27:00,42.3,39.6,30.40,South,185,6.0,7.0,90,0.00,,---,0.00,VWS V14.01,2013-01-08 23:27:00,
2013-01-08 18:30:00,42.3,39.6,30.39,SSW,202,3.0,9.0,90,0.00,,---,0.00,VWS V14.01,2013-01-08 23:30:00,
2013-01-08 18:32:00,42.2,39.8,30.39,SW,214,1.0,6.0,91,0.00,,---,0.00,VWS V14.01,2013-01-08 23:32:00,
2013-01-08 18:37:00,42.2,39.8,30.40,WSW,250,2.0,6.0,91,0.00,,---,0.00,VWS V14.01,2013-01-08 23:37:00,
2013-01-08 18:42:00,42.3,39.9,30.40,WSW,248,3.0,6.0,91,0.00,,---,0.00,VWS V14.01,2013-01-08 23:42:00,
2013-01-08 18:47:00,42.5,39.8,30.39,West,278,4.0,8.0,90,0.00,,---,0.00,VWS V14.01,2013-01-08 23:47:00,
2013-01-08 18:52:00,42.4,39.7,30.40,South,170,2.0,8.0,90,0.00,,---,0.00,VWS V14.01,2013-01-08 23:52:00,
2013-01-08 18:57:00,42.3,39.9,30.39,SW,215,4.0,8.0,91,0.00,,---,0.00,VWS V14.01,2013-01-08 23:57:00,
2013-01-08 19:00:00,42.3,39.9,30.40,SSW,202,3.0,9.0,91,0.00,,---,0.00,VWS V14.01,2013-01-09 00:00:00,
2013-01-08 19:03:00,42.2,39.8,30.40,WSW,238,1.0,5.0,91,0.00,,---,0.00,VWS V14.01,2013-01-09 00:03:00,
2013-01-08 19:08:00,42.1,39.7,30.40,SSE,160,5.0,6.0,91,0.00,,---,0.00,VWS V14.01,2013-01-09 00:08:00,
2013-01-08 19:13:00,42.1,40.0,30.39,South,183,2.0,6.0,92,0.00,,---,0.00,VWS V14.01,2013-01-09 00:13:00,
2013-01-08 19:18:00,42.2,40.0,30.40,SSW,192,2.0,7.0,92,0.00,,---,0.00,VWS V14.01,2013-01-09 00:18:00,
2013-01-08 19:23:00,42.5,40.3,30.39,SW,228,4.0,7.0,92,0.00,,---,0.00,VWS V14.01,2013-01-09 00:23:00,
2013-01-08 19:28:00,42.6,40.4,30.39,SSE,149,3.0,7.0,92,0.00,,---,0.00,VWS V14.01,2013-01-09 00:28:00,
2013-01-08 19:30:00,42.7,40.3,30.39,SSW,202,3.0,7.0,91,0.00,,---,0.00,VWS V14.01,2013-01-09 00:30:00,
2013-01-08 19:33:00,42.9,40.5,30.39,WSW,238,4.0,7.0,91,0.00,,---,0.00,VWS V14.01,2013-01-09 00:33:00,
2013-01-08 19:38:00,43.3,40.3,30.39,SW,229,1.0,8.0,89,0.00,,---,0.00,VWS V14.01,2013-01-09 00:38:00,
2013-01-08 19:43:00,43.6,39.7,30.40,SSW,211,0.0,8.0,86,0.00,,---,0.00,VWS V14.01,2013-01-09 00:43:00,
2013-01-08 19:51:00,44.2,39.1,30.39,SW,221,4.0,8.0,82,0.00,,---,0.00,VWS V14.01,2013-01-09 00:51:00,
2013-01-08 19:56:00,44.3,39.2,30.39,SSW,203,3.0,8.0,82,0.00,,---,0.00,VWS V14.01,2013-01-09 00:56:00,
2013-01-08 20:00:00,44.3,39.5,30.40,SSW,202,2.0,8.0,83,0.00,,---,0.00,VWS V14.01,2013-01-09 01:00:00,
2013-01-08 20:01:00,44.3,39.2,30.40,SW,227,0.0,2.0,82,0.00,,---,0.00,VWS V14.01,2013-01-09 01:01:00,
2013-01-08 20:06:00,44.5,38.4,30.40,SSE,168,2.0,4.0,79,0.00,,---,0.00,VWS V14.01,2013-01-09 01:06:00,
2013-01-08 20:11:00,44.9,37.8,30.40,SE,139,1.0,5.0,76,0.00,,---,0.00,VWS V14.01,2013-01-09 01:11:00,
2013-01-08 20:17:00,45.3,37.5,30.39,WSW,256,2.0,5.0,74,0.00,,---,0.00,VWS V14.01,2013-01-09 01:17:00,
2013-01-08 20:23:00,45.0,39.2,30.39,WSW,238,2.0,5.0,80,0.00,,---,0.00,VWS V14.01,2013-01-09 01:23:00,
2013-01-08 20:28:00,44.4,39.9,30.39,SW,231,4.0,7.0,84,0.00,,---,0.00,VWS V14.01,2013-01-09 01:28:00,
2013-01-08 20:30:00,44.3,39.5,30.39,SSW,202,2.0,7.0,83,0.00,,---,0.00,VWS V14.01,2013-01-09 01:30:00,
2013-01-08 20:33:00,44.4,38.9,30.39,South,188,5.0,5.0,81,0.00,,---,0.00,VWS V14.01,2013-01-09 01:33:00,
2013-01-08 20:38:00,44.8,39.7,30.39,WSW,238,1.0,7.0,82,0.00,,---,0.00,VWS V14.01,2013-01-09 01:38:00,
2013-01-08 20:43:00,44.7,39.9,30.38,West,278,3.0,8.0,83,0.00,,---,0.00,VWS V14.01,2013-01-09 01:43:00,
2013-01-08 20:48:00,44.9,38.8,30.38,SW,221,0.0,8.0,79,0.00,,---,0.00,VWS V14.01,2013-01-09 01:48:00,
2013-01-08 20:53:00,45.2,39.4,30.38,East,91,5.0,8.0,80,0.00,,---,0.00,VWS V14.01,2013-01-09 01:53:00,
2013-01-08 20:58:00,44.8,40.3,30.38,ESE,105,4.0,8.0,84,0.00,,---,0.00,VWS V14.01,2013-01-09 01:58:00,
2013-01-08 21:00:00,44.7,40.5,30.38,SSW,202,3.0,8.0,85,0.00,,---,0.00,VWS V14.01,2013-01-09 02:00:00,
2013-01-08 21:03:00,44.4,40.8,30.38,WSW,245,3.0,7.0,87,0.00,,---,0.00,VWS V14.01,2013-01-09 02:03:00,
2013-01-08 21:09:00,43.9,40.6,30.37,East,83,4.0,7.0,88,0.00,,---,0.00,VWS V14.01,2013-01-09 02:09:00,
2013-01-08 21:15:00,43.5,40.5,30.37,WSW,254,3.0,7.0,89,0.00,,---,0.00,VWS V14.01,2013-01-09 02:15:00,
2013-01-08 21:20:00,43.5,40.8,30.37,SSE,152,3.0,7.0,90,0.00,,---,0.00,VWS V14.01,2013-01-09 02:20:00,
2013-01-08 21:25:00,43.4,40.7,30.37,ESE,119,2.0,7.0,90,0.00,,---,0.00,VWS V14.01,2013-01-09 02:25:00,
2013-01-08 21:30:00,43.3,40.8,30.37,South,188,2.0,7.0,91,0.00,,---,0.00,VWS V14.01,2013-01-09 02:30:00,
2013-01-08 21:35:00,43.5,41.0,30.37,South,176,3.0,6.0,91,0.00,,---,0.00,VWS V14.01,2013-01-09 02:35:00,
2013-01-08 21:40:00,43.7,41.0,30.37,East,98,2.0,6.0,90,0.00,,---,0.00,VWS V14.01,2013-01-09 02:40:00,
2013-01-08 21:45:00,43.7,41.0,30.38,South,174,2.0,6.0,90,0.00,,---,0.00,VWS V14.01,2013-01-09 02:45:00,
2013-01-08 21:50:00,43.9,41.2,30.38,WNW,285,3.0,6.0,90,0.00,,---,0.00,VWS V14.01,2013-01-09 02:50:00,
2013-01-08 21:55:00,43.8,41.1,30.38,West,259,0.0,6.0,90,0.00,,---,0.00,VWS V14.01,2013-01-09 02:55:00,
2013-01-08 22:00:00,43.7,41.0,30.38,SSW,202,2.0,7.0,90,0.00,,---,0.00,VWS V14.01,2013-01-09 03:00:00,
2013-01-08 22:02:00,43.6,40.9,30.38,SE,129,6.0,8.0,90,0.00,,---,0.00,VWS V14.01,2013-01-09 03:02:00,
2013-01-08 22:08:00,43.8,40.8,30.38,WSW,246,3.0,8.0,89,0.00,,---,0.00,VWS V14.01,2013-01-09 03:08:00,
2013-01-08 22:13:00,44.3,40.4,30.39,SE,136,4.0,8.0,86,0.00,,---,0.00,VWS V14.01,2013-01-09 03:13:00,
2013-01-08 22:18:00,44.5,40.6,30.39,South,186,3.0,8.0,86,0.00,,---,0.00,VWS V14.01,2013-01-09 03:18:00,
2013-01-08 22:23:00,44.5,40.0,30.39,SW,218,3.0,8.0,84,0.00,,---,0.00,VWS V14.01,2013-01-09 03:23:00,
2013-01-08 22:28:00,44.6,40.4,30.39,SSW,207,0.0,8.0,85,0.00,,---,0.00,VWS V14.01,2013-01-09 03:28:00,
2013-01-08 22:30:00,44.6,40.1,30.39,SSW,202,3.0,8.0,84,0.00,,---,0.00,VWS V14.01,2013-01-09 03:30:00,
2013-01-08 22:33:00,44.7,39.9,30.39,WSW,245,2.0,5.0,83,0.00,,---,0.00,VWS V14.01,2013-01-09 03:33:00,
2013-01-08 22:38:00,44.8,39.7,30.39,SW,219,0.0,5.0,82,0.00,,---,0.00,VWS V14.01,2013-01-09 03:38:00,
2013-01-08 22:43:00,44.8,39.3,30.39,SSW,206,0.0,5.0,81,0.00,,---,0.00,VWS V14.01,2013-01-09 03:43:00,
2013-01-08 22:56:00,44.9,39.4,30.39,SSW,207,0.0,5.0,81,0.00,,---,0.00,VWS V14.01,2013-01-09 03:56:00,
2013-01-08 23:00:00,44.7,39.5,30.39,SSW,202,1.0,5.0,82,0.00,,---,0.00,VWS V14.01,2013-01-09 04:00:00,
2013-01-08 23:03:00,44.7,39.5,30.39,SSW,202,0.0,2.0,82,0.00,,---,0.00,VWS V14.01,2013-01-09 04:03:00,
2013-01-08 23:13:00,44.9,39.1,30.39,SW,230,0.0,2.0,80,0.00,,---,0.00,VWS V14.01,2013-01-09 04:13:00,
2013-01-08 23:18:00,44.9,39.1,30.39,SW,236,1.0,2.0,80,0.00,,---,0.00,VWS V14.01,2013-01-09 04:18:00,
2013-01-08 23:24:00,44.9,38.8,30.39,WSW,242,0.0,2.0,79,0.00,,---,0.00,VWS V14.01,2013-01-09 04:24:00,
2013-01-08 23:30:00,45.1,38.3,30.38,SW,214,0.0,2.0,77,0.00,,---,0.00,VWS V14.01,2013-01-09 04:30:00,
2013-01-08 23:35:00,45.3,38.2,30.38,SW,226,0.0,1.0,76,0.00,,---,0.00,VWS V14.01,2013-01-09 04:35:00,
2013-01-08 23:40:00,45.5,38.0,30.38,SW,231,0.0,2.0,75,0.00,,---,0.00,VWS V14.01,2013-01-09 04:40:00,
2013-01-08 23:45:00,45.6,37.8,30.38,SW,231,0.0,2.0,74,0.00,,---,0.00,VWS V14.01,2013-01-09 04:45:00,
2013-01-08 23:51:00,45.3,38.9,30.38,SW,231,0.0,2.0,78,0.00,,---,0.00,VWS V14.01,2013-01-09 04:51:00,
2013-01-08 23:56:00,44.9,39.4,30.38,SSE,167,1.0,2.0,81,0.00,,---,0.00,VWS V14.01,2013-01-09 04:56:00,